Time,TemperatureF,DewpointF,PressureIn,WindDirection,WindDirectionDegrees,WindSpeedMPH,WindSpeedGustMPH,Humidity,HourlyPrecipIn,Conditions,Clouds,dailyrainin,SoftwareType,DateUTC
2012-10-27 00:00:00,34.8,27.2,0.00,NE,56,15.7,-999.0,73,0.00,,,-99.99,,2012-10-27 08:00:00,
2012-10-27 00:05:00,35.0,27.7,0.00,ENE,62,15.8,-999.0,74,0.00,,,-99.99,,2012-10-27 08:05:00,
2012-10-27 00:10:00,34.9,27.2,0.00,ENE,58,16.1,-999.0,73,0.00,,,-99.99,,2012-10-27 08:10:00,
2012-10-27 00:15:00,34.8,27.2,0.00,ENE,65,12.9,-999.0,73,0.00,,,-99.99,,2012-10-27 08:15:00,
2012-10-27 00:20:00,34.9,27.5,0.00,NE,51,10.0,-999.0,74,0.00,,,-99.99,,2012-10-27 08:20:00,
2012-10-27 00:25:00,34.7,26.5,0.00,NE,55,15.8,-999.0,71,0.00,,,-99.99,,2012-10-27 08:25:00,
2012-10-27 00:30:00,34.9,26.6,0.00,ENE,65,15.3,-999.0,71,0.00,,,-99.99,,2012-10-27 08:30:00,
2012-10-27 00:35:00,35.0,26.4,0.00,NE,48,14.4,-999.0,70,0.00,,,-99.99,,2012-10-27 08:35:00,
2012-10-27 00:40:00,35.0,26.6,0.00,ENE,61,12.7,-999.0,71,0.00,,,-99.99,,2012-10-27 08:40:00,
2012-10-27 00:45:00,34.9,26.1,0.00,NE,50,14.7,-999.0,69,0.00,,,-99.99,,2012-10-27 08:45:00,
2012-10-27 00:50:00,35.0,26.5,0.00,NE,51,12.8,-999.0,70,0.00,,,-99.99,,2012-10-27 08:50:00,
2012-10-27 00:55:00,34.9,26.4,0.00,ENE,58,13.6,-999.0,71,0.00,,,-99.99,,2012-10-27 08:55:00,
2012-10-27 01:00:00,35.0,26.2,0.00,ENE,59,13.8,-999.0,70,0.00,,,-99.99,,2012-10-27 09:00:00,
2012-10-27 01:05:00,34.9,26.7,0.00,NE,49,12.6,-999.0,71,0.00,,,-99.99,,2012-10-27 09:05:00,
2012-10-27 01:10:00,34.7,26.0,0.00,ENE,57,14.0,-999.0,70,0.00,,,-99.99,,2012-10-27 09:10:00,
2012-10-27 01:15:00,34.7,26.2,0.00,ENE,68,11.1,-999.0,70,0.00,,,-99.99,,2012-10-27 09:15:00,
2012-10-27 01:20:00,34.8,25.8,0.00,ENE,70,13.2,-999.0,69,0.00,,,-99.99,,2012-10-27 09:20:00,
2012-10-27 01:25:00,34.8,25.9,0.00,ENE,68,13.7,-999.0,69,0.00,,,-99.99,,2012-10-27 09:25:00,
2012-10-27 01:30:00,34.8,26.4,0.00,NE,56,12.1,-999.0,70,0.00,,,-99.99,,2012-10-27 09:30:00,
2012-10-27 01:35:00,34.9,26.3,0.00,ENE,66,13.5,-999.0,70,0.00,,,-99.99,,2012-10-27 09:35:00,
2012-10-27 01:40:00,34.9,25.9,0.00,ENE,66,13.6,-999.0,69,0.00,,,-99.99,,2012-10-27 09:40:00,
2012-10-27 01:45:00,35.1,25.9,0.00,NE,43,12.5,-999.0,68,0.00,,,-99.99,,2012-10-27 09:45:00,
2012-10-27 01:50:00,34.9,26.1,0.00,NE,50,12.6,-999.0,69,0.00,,,-99.99,,2012-10-27 09:50:00,
2012-10-27 01:55:00,34.9,26.5,0.00,NE,54,10.5,-999.0,71,0.00,,,-99.99,,2012-10-27 09:55:00,
2012-10-27 02:00:00,34.7,26.2,0.00,NE,54,11.3,-999.0,70,0.00,,,-99.99,,2012-10-27 10:00:00,
2012-10-27 02:05:00,34.7,26.4,0.00,NE,54,8.1,-999.0,71,0.00,,,-99.99,,2012-10-27 10:05:00,
2012-10-27 02:10:00,34.8,25.1,0.00,NE,52,12.8,-999.0,67,0.00,,,-99.99,,2012-10-27 10:10:00,
2012-10-27 02:15:00,35.3,25.3,0.00,ENE,71,11.4,-999.0,66,0.00,,,-99.99,,2012-10-27 10:15:00,
2012-10-27 02:20:00,35.1,26.1,0.00,ENE,62,11.9,-999.0,69,0.00,,,-99.99,,2012-10-27 10:20:00,
2012-10-27 02:25:00,34.8,26.2,0.00,NE,42,7.1,-999.0,70,0.00,,,-99.99,,2012-10-27 10:25:00,
2012-10-27 02:30:00,34.5,29.0,0.00,NE,37,11.8,-999.0,79,0.00,,,-99.99,,2012-10-27 10:30:00,
2012-10-27 02:35:00,34.4,29.0,0.00,NE,41,7.9,-999.0,80,0.00,,,-99.99,,2012-10-27 10:35:00,
2012-10-27 02:40:00,34.5,29.1,0.00,NE,43,8.5,-999.0,80,0.00,,,-99.99,,2012-10-27 10:40:00,
2012-10-27 02:45:00,34.2,29.7,0.00,NNE,27,11.9,-999.0,83,0.00,,,-99.99,,2012-10-27 10:45:00,
2012-10-27 02:50:00,33.9,29.7,0.00,NNE,28,9.2,-999.0,84,0.00,,,-99.99,,2012-10-27 10:50:00,
2012-10-27 02:55:00,34.1,29.6,0.00,NNE,13,10.0,-999.0,83,0.00,,,-99.99,,2012-10-27 10:55:00,
2012-10-27 03:00:00,34.2,29.8,0.00,NNE,21,11.4,-999.0,83,0.00,,,-99.99,,2012-10-27 11:00:00,
2012-10-27 03:05:00,34.0,29.6,0.00,North,11,11.9,-999.0,83,0.00,,,-99.99,,2012-10-27 11:05:00,
2012-10-27 03:10:00,34.1,29.3,0.00,NNE,16,10.5,-999.0,82,0.00,,,-99.99,,2012-10-27 11:10:00,
2012-10-27 03:15:00,34.2,29.4,0.00,NNE,26,13.2,-999.0,82,0.00,,,-99.99,,2012-10-27 11:15:00,
2012-10-27 03:20:00,34.3,29.1,0.00,NNE,27,11.0,-999.0,81,0.00,,,-99.99,,2012-10-27 11:20:00,
2012-10-27 03:25:00,34.2,29.5,0.00,NNE,16,9.7,-999.0,82,0.00,,,-99.99,,2012-10-27 11:25:00,
2012-10-27 03:30:00,34.1,29.6,0.00,North,2,11.0,-999.0,83,0.00,,,-99.99,,2012-10-27 11:30:00,
2012-10-27 03:35:00,33.2,29.9,0.00,NNW,346,7.4,-999.0,87,0.00,,,-99.99,,2012-10-27 11:35:00,
2012-10-27 03:40:00,33.3,30.4,0.00,NNW,344,6.8,-999.0,89,0.00,,,-99.99,,2012-10-27 11:40:00,
2012-10-27 03:45:00,33.3,30.8,0.00,NNW,341,7.0,-999.0,90,0.00,,,-99.99,,2012-10-27 11:45:00,
2012-10-27 03:50:00,33.2,30.9,0.00,NNW,342,8.5,-999.0,91,0.00,,,-99.99,,2012-10-27 11:50:00,
2012-10-27 03:55:00,33.2,31.0,0.00,NNW,340,6.0,-999.0,91,0.00,,,-99.99,,2012-10-27 11:55:00,
2012-10-27 04:00:00,33.2,31.1,0.00,NNW,340,5.8,-999.0,91,0.00,,,-99.99,,2012-10-27 12:00:00,
2012-10-27 04:05:00,33.3,31.1,0.00,NNW,334,7.3,-999.0,91,0.00,,,-99.99,,2012-10-27 12:05:00,
2012-10-27 04:10:00,33.2,31.1,0.00,NNW,339,7.0,-999.0,92,0.00,,,-99.99,,2012-10-27 12:10:00,
2012-10-27 04:15:00,33.4,31.2,0.00,North,354,5.6,-999.0,91,0.00,,,-99.99,,2012-10-27 12:15:00,
2012-10-27 04:20:00,33.5,31.4,0.00,North,1,6.0,-999.0,91,0.00,,,-99.99,,2012-10-27 12:20:00,
2012-10-27 04:25:00,33.5,31.4,0.00,North,8,4.9,-999.0,92,0.00,,,-99.99,,2012-10-27 12:25:00,
2012-10-27 04:30:00,33.4,31.4,0.00,North,0,5.5,-999.0,92,0.00,,,-99.99,,2012-10-27 12:30:00,
2012-10-27 04:35:00,33.4,31.4,0.00,NNW,340,4.1,-999.0,92,0.00,,,-99.99,,2012-10-27 12:35:00,
2012-10-27 04:40:00,33.5,31.3,0.00,North,354,4.4,-999.0,91,0.00,,,-99.99,,2012-10-27 12:40:00,
2012-10-27 04:45:00,33.4,31.4,0.00,North,349,4.0,-999.0,92,0.00,,,-99.99,,2012-10-27 12:45:00,
2012-10-27 04:50:00,33.2,31.4,0.00,North,350,5.9,-999.0,93,0.00,,,-99.99,,2012-10-27 12:50:00,
2012-10-27 04:55:00,33.3,31.6,0.00,NNW,333,11.2,-999.0,93,0.00,,,-99.99,,2012-10-27 12:55:00,
2012-10-27 05:00:00,33.2,31.9,0.00,NNW,338,8.8,-999.0,95,0.00,,,-99.99,,2012-10-27 13:00:00,
2012-10-27 05:05:00,33.0,31.8,0.00,NW,326,6.9,-999.0,95,0.00,,,-99.99,,2012-10-27 13:05:00,
2012-10-27 05:10:00,33.2,32.2,0.00,NNW,337,8.5,-999.0,96,0.00,,,-99.99,,2012-10-27 13:10:00,
2012-10-27 05:15:00,33.2,32.3,0.00,NNW,334,8.1,-999.0,96,0.00,,,-99.99,,2012-10-27 13:15:00,
2012-10-27 05:20:00,33.0,32.2,0.00,NNW,336,8.2,-999.0,97,0.00,,,-99.99,,2012-10-27 13:20:00,
2012-10-27 05:26:00,33.0,32.2,0.00,NNW,329,7.6,-999.0,97,0.00,,,-99.99,,2012-10-27 13:26:00,
2012-10-27 05:31:00,33.0,32.4,0.00,NNW,330,7.8,-999.0,97,0.00,,,-99.99,,2012-10-27 13:31:00,
2012-10-27 05:36:00,33.3,32.8,0.00,NNW,339,8.6,-999.0,98,0.00,,,-99.99,,2012-10-27 13:36:00,
2012-10-27 05:41:00,33.2,32.7,0.00,NNW,340,11.4,-999.0,98,0.00,,,-99.99,,2012-10-27 13:41:00,
2012-10-27 05:46:00,33.0,32.4,0.00,NNW,333,8.1,-999.0,97,0.00,,,-99.99,,2012-10-27 13:46:00,
2012-10-27 05:51:00,33.0,32.4,0.00,NNW,341,8.7,-999.0,97,0.00,,,-99.99,,2012-10-27 13:51:00,
2012-10-27 05:56:00,32.7,32.1,0.00,NNW,333,8.9,-999.0,97,0.00,,,-99.99,,2012-10-27 13:56:00,
2012-10-27 06:01:00,32.7,32.0,0.00,North,2,9.4,-999.0,97,0.00,,,-99.99,,2012-10-27 14:01:00,
2012-10-27 06:06:00,32.6,31.8,0.00,NNW,337,11.4,-999.0,96,0.00,,,-99.99,,2012-10-27 14:06:00,
2012-10-27 06:11:00,32.5,31.7,0.00,NNW,334,10.7,-999.0,96,0.00,,,-99.99,,2012-10-27 14:11:00,
2012-10-27 06:16:00,32.5,31.7,0.00,NNW,341,11.4,-999.0,96,0.00,,,-99.99,,2012-10-27 14:16:00,
2012-10-27 06:21:00,32.7,32.0,0.00,NNW,329,14.4,-999.0,97,0.00,,,-99.99,,2012-10-27 14:21:00,
2012-10-27 06:26:00,33.0,32.2,0.00,NNW,339,13.5,-999.0,96,0.00,,,-99.99,,2012-10-27 14:26:00,
2012-10-27 06:31:00,32.8,32.2,0.00,NNW,329,12.2,-999.0,97,0.00,,,-99.99,,2012-10-27 14:31:00,
2012-10-27 06:36:00,32.6,31.9,0.00,NNW,337,11.0,-999.0,97,0.00,,,-99.99,,2012-10-27 14:36:00,
2012-10-27 06:41:00,32.5,31.8,0.00,NNW,333,11.6,-999.0,97,0.00,,,-99.99,,2012-10-27 14:41:00,
2012-10-27 06:46:00,32.2,31.5,0.00,NNW,327,11.2,-999.0,97,0.00,,,-99.99,,2012-10-27 14:46:00,
2012-10-27 06:51:00,32.3,31.7,0.00,NNW,336,9.4,-999.0,97,0.00,,,-99.99,,2012-10-27 14:51:00,
2012-10-27 06:56:00,32.4,31.8,0.00,NNW,337,10.9,-999.0,97,0.00,,,-99.99,,2012-10-27 14:56:00,
2012-10-27 07:01:00,32.4,31.6,0.00,NNW,331,10.0,-999.0,97,0.00,,,-99.99,,2012-10-27 15:01:00,
2012-10-27 07:06:00,32.7,31.9,0.00,NNW,332,8.4,-999.0,97,0.00,,,-99.99,,2012-10-27 15:06:00,
2012-10-27 07:11:00,32.7,31.8,0.00,NNW,327,8.9,-999.0,96,0.00,,,-99.99,,2012-10-27 15:11:00,
2012-10-27 07:16:00,32.8,31.8,0.00,NW,321,11.8,-999.0,96,0.00,,,-99.99,,2012-10-27 15:16:00,
2012-10-27 07:21:00,32.8,31.8,0.00,NW,323,15.2,-999.0,96,0.00,,,-99.99,,2012-10-27 15:21:00,
2012-10-27 07:26:00,33.0,32.0,0.00,NNW,331,10.5,-999.0,96,0.00,,,-99.99,,2012-10-27 15:26:00,
2012-10-27 07:31:00,32.9,32.0,0.00,NNW,334,11.7,-999.0,96,0.00,,,-99.99,,2012-10-27 15:31:00,
2012-10-27 07:36:00,32.8,31.9,0.00,NNW,345,9.1,-999.0,96,0.00,,,-99.99,,2012-10-27 15:36:00,
2012-10-27 07:42:00,32.7,32.0,0.00,NNW,344,8.5,-999.0,97,0.00,,,-99.99,,2012-10-27 15:42:00,
2012-10-27 07:47:00,32.9,32.2,0.00,North,0,4.5,-999.0,97,0.00,,,-99.99,,2012-10-27 15:47:00,
2012-10-27 07:52:00,33.2,32.5,0.00,North,2,6.3,-999.0,97,0.00,,,-99.99,,2012-10-27 15:52:00,
2012-10-27 07:57:00,33.2,32.4,0.00,North,9,4.9,-999.0,96,0.00,,,-99.99,,2012-10-27 15:57:00,
2012-10-27 08:02:00,33.2,32.4,0.00,North,6,8.9,-999.0,96,0.00,,,-99.99,,2012-10-27 16:02:00,
2012-10-27 08:07:00,33.2,32.3,0.00,North,353,9.5,-999.0,96,0.00,,,-99.99,,2012-10-27 16:07:00,
2012-10-27 08:12:00,33.2,32.4,0.00,North,353,9.6,-999.0,97,0.00,,,-99.99,,2012-10-27 16:12:00,
2012-10-27 08:17:00,33.2,32.4,0.00,NNW,335,9.3,-999.0,97,0.00,,,-99.99,,2012-10-27 16:17:00,
2012-10-27 08:22:00,33.2,32.4,0.00,NNW,343,15.7,-999.0,97,0.00,,,-99.99,,2012-10-27 16:22:00,
2012-10-27 08:27:00,33.0,32.3,0.00,NNW,344,15.2,-999.0,97,0.00,,,-99.99,,2012-10-27 16:27:00,
2012-10-27 08:32:00,32.9,32.3,0.00,NNW,334,11.4,-999.0,97,0.00,,,-99.99,,2012-10-27 16:32:00,
2012-10-27 08:37:00,32.8,32.3,0.00,NNW,331,9.9,-999.0,97,0.00,,,-99.99,,2012-10-27 16:37:00,
2012-10-27 08:42:00,32.7,32.1,0.00,NW,319,9.9,-999.0,97,0.00,,,-99.99,,2012-10-27 16:42:00,
2012-10-27 08:47:00,32.6,32.0,0.00,NW,315,11.6,-999.0,97,0.00,,,-99.99,,2012-10-27 16:47:00,
2012-10-27 08:52:00,32.7,31.9,0.00,NW,326,11.5,-999.0,97,0.00,,,-99.99,,2012-10-27 16:52:00,
2012-10-27 08:57:00,32.8,31.9,0.00,NNW,331,12.1,-999.0,96,0.00,,,-99.99,,2012-10-27 16:57:00,
2012-10-27 09:02:00,32.9,32.0,0.00,NNW,329,10.5,-999.0,96,0.00,,,-99.99,,2012-10-27 17:02:00,
2012-10-27 09:07:00,32.9,32.0,0.00,NW,324,11.5,-999.0,96,0.00,,,-99.99,,2012-10-27 17:07:00,
2012-10-27 09:12:00,32.7,31.9,0.00,NNW,330,14.0,-999.0,96,0.00,,,-99.99,,2012-10-27 17:12:00,
2012-10-27 09:17:00,33.0,32.3,0.00,NNW,327,12.3,-999.0,97,0.00,,,-99.99,,2012-10-27 17:17:00,
2012-10-27 09:22:00,33.0,32.2,0.00,NW,319,12.3,-999.0,97,0.00,,,-99.99,,2012-10-27 17:22:00,
2012-10-27 09:27:00,32.6,31.8,0.00,NW,322,13.9,-999.0,97,0.00,,,-99.99,,2012-10-27 17:27:00,
2012-10-27 09:32:00,32.7,31.9,0.00,NW,324,12.8,-999.0,96,0.00,,,-99.99,,2012-10-27 17:32:00,
2012-10-27 09:37:00,32.6,31.8,0.00,NNW,330,12.5,-999.0,96,0.00,,,-99.99,,2012-10-27 17:37:00,
2012-10-27 09:42:00,32.7,31.8,0.00,NW,325,12.2,-999.0,96,0.00,,,-99.99,,2012-10-27 17:42:00,
2012-10-27 09:47:00,32.5,31.7,0.00,NNW,333,12.3,-999.0,96,0.00,,,-99.99,,2012-10-27 17:47:00,
2012-10-27 09:52:00,32.4,31.6,0.00,NW,325,13.2,-999.0,96,0.00,,,-99.99,,2012-10-27 17:52:00,
2012-10-27 09:57:00,32.3,31.4,0.00,NNW,328,12.7,-999.0,96,0.00,,,-99.99,,2012-10-27 17:57:00,
2012-10-27 10:02:00,32.4,31.3,0.00,NW,323,11.2,-999.0,95,0.00,,,-99.99,,2012-10-27 18:02:00,
2012-10-27 10:07:00,32.1,31.0,0.00,NNW,335,11.3,-999.0,95,0.00,,,-99.99,,2012-10-27 18:07:00,
2012-10-27 10:12:00,32.2,31.1,0.00,NNW,340,11.6,-999.0,95,0.00,,,-99.99,,2012-10-27 18:12:00,
2012-10-27 10:17:00,32.3,31.0,0.00,NNW,340,13.3,-999.0,95,0.00,,,-99.99,,2012-10-27 18:17:00,
2012-10-27 10:22:00,32.2,30.9,0.00,NNW,345,14.3,-999.0,94,0.00,,,-99.99,,2012-10-27 18:22:00,
2012-10-27 10:27:00,32.2,31.0,0.00,NNW,341,14.1,-999.0,95,0.00,,,-99.99,,2012-10-27 18:27:00,
2012-10-27 10:32:00,32.2,30.8,0.00,NNW,331,11.5,-999.0,94,0.00,,,-99.99,,2012-10-27 18:32:00,
2012-10-27 10:37:00,32.3,30.9,0.00,NNW,333,11.1,-999.0,94,0.00,,,-99.99,,2012-10-27 18:37:00,
2012-10-27 10:42:00,32.0,30.6,0.00,NNW,343,15.2,-999.0,94,0.00,,,-99.99,,2012-10-27 18:42:00,
2012-10-27 10:47:00,32.1,30.7,0.00,NNW,347,13.7,-999.0,94,0.00,,,-99.99,,2012-10-27 18:47:00,
2012-10-27 10:52:00,32.1,30.3,0.00,NNW,347,13.1,-999.0,93,0.00,,,-99.99,,2012-10-27 18:52:00,
2012-10-27 10:57:00,32.0,30.3,0.00,NNW,340,13.4,-999.0,93,0.00,,,-99.99,,2012-10-27 18:57:00,
2012-10-27 11:02:00,32.2,30.3,0.00,NNW,347,15.4,-999.0,92,0.00,,,-99.99,,2012-10-27 19:02:00,
2012-10-27 11:07:00,32.4,30.2,0.00,NNW,345,14.2,-999.0,91,0.00,,,-99.99,,2012-10-27 19:07:00,
2012-10-27 11:12:00,32.4,30.1,0.00,NNW,346,13.0,-999.0,91,0.00,,,-99.99,,2012-10-27 19:12:00,
2012-10-27 11:17:00,32.4,30.1,0.00,NNW,341,13.0,-999.0,91,0.00,,,-99.99,,2012-10-27 19:17:00,
2012-10-27 11:22:00,32.4,30.0,0.00,NNW,340,7.6,-999.0,91,0.00,,,-99.99,,2012-10-27 19:22:00,
2012-10-27 11:27:00,32.7,30.0,0.00,NNW,336,9.5,-999.0,89,0.00,,,-99.99,,2012-10-27 19:27:00,
2012-10-27 11:32:00,32.7,30.0,0.00,NNW,346,10.1,-999.0,90,0.00,,,-99.99,,2012-10-27 19:32:00,
2012-10-27 11:37:00,32.7,29.9,0.00,NNW,348,11.2,-999.0,89,0.00,,,-99.99,,2012-10-27 19:37:00,
2012-10-27 11:42:00,32.8,29.6,0.00,NNW,339,11.7,-999.0,87,0.00,,,-99.99,,2012-10-27 19:42:00,
2012-10-27 11:47:00,33.8,30.7,0.00,NNW,342,12.9,-999.0,88,0.00,,,-99.99,,2012-10-27 19:47:00,
2012-10-27 11:52:00,33.0,29.8,0.00,NNW,341,10.6,-999.0,87,0.00,,,-99.99,,2012-10-27 19:52:00,
2012-10-27 11:58:00,33.1,29.9,0.00,NNW,340,10.5,-999.0,88,0.00,,,-99.99,,2012-10-27 19:58:00,
2012-10-27 12:03:00,33.2,29.9,0.00,NW,323,9.8,-999.0,87,0.00,,,-99.99,,2012-10-27 20:03:00,
2012-10-27 12:08:00,33.4,29.6,0.00,North,351,10.7,-999.0,85,0.00,,,-99.99,,2012-10-27 20:08:00,
2012-10-27 12:13:00,33.5,29.8,0.00,NNW,346,8.3,-999.0,86,0.00,,,-99.99,,2012-10-27 20:13:00,
2012-10-27 12:18:00,33.3,29.6,0.00,North,354,6.8,-999.0,86,0.00,,,-99.99,,2012-10-27 20:18:00,
2012-10-27 12:24:00,33.5,29.6,0.00,NNW,341,11.2,-999.0,85,0.00,,,-99.99,,2012-10-27 20:24:00,
2012-10-27 12:29:00,33.7,29.7,0.00,NNW,345,8.1,-999.0,85,0.00,,,-99.99,,2012-10-27 20:29:00,
2012-10-27 12:34:00,34.1,30.1,0.00,NNW,346,8.1,-999.0,85,0.00,,,-99.99,,2012-10-27 20:34:00,
2012-10-27 12:39:00,33.8,29.9,0.00,North,354,6.7,-999.0,85,0.00,,,-99.99,,2012-10-27 20:39:00,
2012-10-27 12:44:00,34.0,29.9,0.00,NNW,331,9.5,-999.0,84,0.00,,,-99.99,,2012-10-27 20:44:00,
2012-10-27 12:49:00,34.1,29.7,0.00,NNW,347,7.9,-999.0,83,0.00,,,-99.99,,2012-10-27 20:49:00,
2012-10-27 12:54:00,33.9,29.7,0.00,North,2,5.6,-999.0,84,0.00,,,-99.99,,2012-10-27 20:54:00,
2012-10-27 12:59:00,33.8,29.7,0.00,NNW,338,8.3,-999.0,85,0.00,,,-99.99,,2012-10-27 20:59:00,
2012-10-27 13:04:00,34.1,30.3,0.00,NNW,333,8.0,-999.0,85,0.00,,,-99.99,,2012-10-27 21:04:00,
2012-10-27 13:09:00,33.9,29.7,0.00,NNW,339,9.8,-999.0,84,0.00,,,-99.99,,2012-10-27 21:09:00,
2012-10-27 13:14:00,34.1,30.1,0.00,NNW,340,5.9,-999.0,85,0.00,,,-99.99,,2012-10-27 21:14:00,
2012-10-27 13:19:00,34.2,30.2,0.00,North,350,4.1,-999.0,85,0.00,,,-99.99,,2012-10-27 21:19:00,
2012-10-27 13:25:00,34.3,30.2,0.00,NNW,342,6.1,-999.0,84,0.00,,,-99.99,,2012-10-27 21:25:00,
2012-10-27 13:30:00,34.2,29.6,0.00,North,0,10.2,-999.0,83,0.00,,,-99.99,,2012-10-27 21:30:00,
2012-10-27 13:35:00,34.5,29.6,0.00,NNW,333,6.4,-999.0,82,0.00,,,-99.99,,2012-10-27 21:35:00,
2012-10-27 13:40:00,34.7,29.8,0.00,NNW,340,8.6,-999.0,82,0.00,,,-99.99,,2012-10-27 21:40:00,
2012-10-27 13:45:00,35.7,30.3,0.00,NNW,337,4.3,-999.0,80,0.00,,,-99.99,,2012-10-27 21:45:00,
2012-10-27 13:50:00,34.7,30.1,0.00,NNW,346,10.2,-999.0,83,0.00,,,-99.99,,2012-10-27 21:50:00,
2012-10-27 13:55:00,34.6,30.0,0.00,North,5,8.8,-999.0,82,0.00,,,-99.99,,2012-10-27 21:55:00,
2012-10-27 14:00:00,35.1,30.6,0.00,NNE,15,4.7,-999.0,83,0.00,,,-99.99,,2012-10-27 22:00:00,
2012-10-27 14:05:00,34.8,29.6,0.00,NNW,348,8.7,-999.0,81,0.00,,,-99.99,,2012-10-27 22:05:00,
2012-10-27 14:10:00,35.3,30.1,0.00,NW,321,5.0,-999.0,81,0.00,,,-99.99,,2012-10-27 22:10:00,
2012-10-27 14:15:00,34.9,29.1,0.00,NNW,343,9.6,-999.0,79,0.00,,,-99.99,,2012-10-27 22:15:00,
2012-10-27 14:20:00,34.9,28.7,0.00,NNW,344,12.7,-999.0,78,0.00,,,-99.99,,2012-10-27 22:20:00,
2012-10-27 14:25:00,34.8,28.5,0.00,North,3,11.8,-999.0,77,0.00,,,-99.99,,2012-10-27 22:25:00,
2012-10-27 14:30:00,34.8,28.5,0.00,NNW,340,11.8,-999.0,77,0.00,,,-99.99,,2012-10-27 22:30:00,
2012-10-27 14:35:00,35.2,29.4,0.00,North,0,7.4,-999.0,79,0.00,,,-99.99,,2012-10-27 22:35:00,
2012-10-27 14:40:00,34.8,28.4,0.00,North,2,12.6,-999.0,77,0.00,,,-99.99,,2012-10-27 22:40:00,
2012-10-27 14:45:00,34.7,28.1,0.00,North,1,9.5,-999.0,76,0.00,,,-99.99,,2012-10-27 22:45:00,
2012-10-27 14:50:00,34.9,27.9,0.00,North,352,11.9,-999.0,75,0.00,,,-99.99,,2012-10-27 22:50:00,
2012-10-27 14:56:00,34.9,28.0,0.00,NNW,340,11.8,-999.0,75,0.00,,,-99.99,,2012-10-27 22:56:00,
2012-10-27 15:01:00,34.4,27.8,0.00,North,6,10.1,-999.0,76,0.00,,,-99.99,,2012-10-27 23:01:00,
2012-10-27 15:06:00,34.8,28.2,0.00,NNE,15,5.9,-999.0,76,0.00,,,-99.99,,2012-10-27 23:06:00,
2012-10-27 15:11:00,34.6,28.0,0.00,NNW,346,10.1,-999.0,76,0.00,,,-99.99,,2012-10-27 23:11:00,
2012-10-27 15:16:00,34.5,28.1,0.00,NNW,343,9.4,-999.0,77,0.00,,,-99.99,,2012-10-27 23:16:00,
2012-10-27 15:21:00,34.2,28.1,0.00,NNW,344,10.5,-999.0,77,0.00,,,-99.99,,2012-10-27 23:21:00,
2012-10-27 15:26:00,34.3,28.2,0.00,North,0,9.2,-999.0,78,0.00,,,-99.99,,2012-10-27 23:26:00,
2012-10-27 15:31:00,34.4,28.4,0.00,North,7,11.4,-999.0,78,0.00,,,-99.99,,2012-10-27 23:31:00,
2012-10-27 15:36:00,34.4,28.9,0.00,North,0,13.0,-999.0,80,0.00,,,-99.99,,2012-10-27 23:36:00,
2012-10-27 15:41:00,34.1,29.0,0.00,NNW,347,9.2,-999.0,81,0.00,,,-99.99,,2012-10-27 23:41:00,
2012-10-27 15:46:00,34.1,29.2,0.00,North,0,9.7,-999.0,82,0.00,,,-99.99,,2012-10-27 23:46:00,
2012-10-27 15:51:00,33.9,28.8,0.00,NNW,340,11.8,-999.0,81,0.00,,,-99.99,,2012-10-27 23:51:00,
2012-10-27 15:56:00,34.2,28.8,0.00,NNW,344,9.5,-999.0,80,0.00,,,-99.99,,2012-10-27 23:56:00,
2012-10-27 16:01:00,34.1,29.1,0.00,NNW,338,6.7,-999.0,81,0.00,,,-99.99,,2012-10-28 00:01:00,
2012-10-27 16:06:00,34.1,29.2,0.00,NNE,13,10.4,-999.0,81,0.00,,,-99.99,,2012-10-28 00:06:00,
2012-10-27 16:11:00,34.0,29.1,0.00,North,0,9.7,-999.0,81,0.00,,,-99.99,,2012-10-28 00:11:00,
2012-10-27 16:16:00,34.0,29.0,0.00,NNW,346,7.6,-999.0,81,0.00,,,-99.99,,2012-10-28 00:16:00,
2012-10-27 16:21:00,34.0,29.0,0.00,NNW,343,10.8,-999.0,81,0.00,,,-99.99,,2012-10-28 00:21:00,
2012-10-27 16:26:00,34.2,29.4,0.00,North,350,9.2,-999.0,82,0.00,,,-99.99,,2012-10-28 00:26:00,
2012-10-27 16:31:00,34.2,28.7,0.00,North,350,9.3,-999.0,80,0.00,,,-99.99,,2012-10-28 00:31:00,
2012-10-27 16:36:00,34.1,29.0,0.00,NNE,12,4.6,-999.0,81,0.00,,,-99.99,,2012-10-28 00:36:00,
2012-10-27 16:41:00,34.1,29.3,0.00,North,0,10.9,-999.0,82,0.00,,,-99.99,,2012-10-28 00:41:00,
2012-10-27 16:46:00,34.1,29.5,0.00,NNW,347,10.3,-999.0,83,0.00,,,-99.99,,2012-10-28 00:46:00,
2012-10-27 16:51:00,34.1,29.3,0.00,NNW,346,8.6,-999.0,82,0.00,,,-99.99,,2012-10-28 00:51:00,
2012-10-27 16:56:00,34.1,29.5,0.00,North,0,8.6,-999.0,83,0.00,,,-99.99,,2012-10-28 00:56:00,
2012-10-27 17:01:00,34.0,29.4,0.00,NNE,13,11.8,-999.0,83,0.00,,,-99.99,,2012-10-28 01:01:00,
2012-10-27 17:06:00,34.0,29.0,0.00,North,354,9.8,-999.0,81,0.00,,,-99.99,,2012-10-28 01:06:00,
2012-10-27 17:11:00,33.9,29.2,0.00,North,4,11.0,-999.0,82,0.00,,,-99.99,,2012-10-28 01:11:00,
2012-10-27 17:16:00,33.9,29.4,0.00,North,9,9.5,-999.0,83,0.00,,,-99.99,,2012-10-28 01:16:00,
2012-10-27 17:21:00,33.9,28.8,0.00,North,354,8.5,-999.0,81,0.00,,,-99.99,,2012-10-28 01:21:00,
2012-10-27 17:26:00,33.9,28.8,0.00,NNW,346,10.6,-999.0,81,0.00,,,-99.99,,2012-10-28 01:26:00,
2012-10-27 17:31:00,33.8,28.6,0.00,North,4,14.0,-999.0,80,0.00,,,-99.99,,2012-10-28 01:31:00,
2012-10-27 17:36:00,33.8,27.9,0.00,North,6,11.4,-999.0,78,0.00,,,-99.99,,2012-10-28 01:36:00,
2012-10-27 17:41:00,33.8,28.7,0.00,North,0,10.3,-999.0,81,0.00,,,-99.99,,2012-10-28 01:41:00,
2012-10-27 17:46:00,33.8,29.0,0.00,North,354,9.6,-999.0,82,0.00,,,-99.99,,2012-10-28 01:46:00,
2012-10-27 17:52:00,33.8,28.6,0.00,NNW,336,4.8,-999.0,81,0.00,,,-99.99,,2012-10-28 01:52:00,
2012-10-27 17:57:00,33.6,27.8,0.00,North,352,12.5,-999.0,79,0.00,,,-99.99,,2012-10-28 01:57:00,
2012-10-27 18:02:00,33.6,28.3,0.00,North,0,10.5,-999.0,80,0.00,,,-99.99,,2012-10-28 02:02:00,
2012-10-27 18:07:00,33.6,27.9,0.00,NNE,15,9.7,-999.0,79,0.00,,,-99.99,,2012-10-28 02:07:00,
2012-10-27 18:12:00,33.6,27.2,0.00,NNE,13,11.8,-999.0,77,0.00,,,-99.99,,2012-10-28 02:12:00,
2012-10-27 18:17:00,33.6,27.7,0.00,North,3,9.2,-999.0,78,0.00,,,-99.99,,2012-10-28 02:17:00,
2012-10-27 18:22:00,33.6,28.0,0.00,North,0,6.2,-999.0,79,0.00,,,-99.99,,2012-10-28 02:22:00,
2012-10-27 18:27:00,33.5,28.2,0.00,NNW,343,9.0,-999.0,80,0.00,,,-99.99,,2012-10-28 02:27:00,
2012-10-27 18:32:00,33.5,28.5,0.00,North,350,5.4,-999.0,81,0.00,,,-99.99,,2012-10-28 02:32:00,
2012-10-27 18:37:00,33.4,28.6,0.00,North,354,6.2,-999.0,82,0.00,,,-99.99,,2012-10-28 02:37:00,
2012-10-27 18:42:00,33.3,28.7,0.00,North,9,6.8,-999.0,82,0.00,,,-99.99,,2012-10-28 02:42:00,
2012-10-27 18:47:00,33.5,28.3,0.00,NNW,344,6.5,-999.0,81,0.00,,,-99.99,,2012-10-28 02:47:00,
2012-10-27 18:52:00,33.4,28.6,0.00,NNW,330,7.6,-999.0,82,0.00,,,-99.99,,2012-10-28 02:52:00,
2012-10-27 18:57:00,33.5,28.7,0.00,NW,321,7.9,-999.0,82,0.00,,,-99.99,,2012-10-28 02:57:00,
2012-10-27 19:02:00,33.5,28.3,0.00,NNW,328,10.3,-999.0,81,0.00,,,-99.99,,2012-10-28 03:02:00,
2012-10-27 19:08:00,33.6,27.8,0.00,NNW,339,8.5,-999.0,79,0.00,,,-99.99,,2012-10-28 03:08:00,
2012-10-27 19:13:00,33.5,28.4,0.00,NNW,337,8.2,-999.0,81,0.00,,,-99.99,,2012-10-28 03:13:00,
2012-10-27 19:18:00,33.0,27.9,0.00,NNW,331,8.9,-999.0,81,0.00,,,-99.99,,2012-10-28 03:18:00,
2012-10-27 19:23:00,33.2,28.1,0.00,NNW,330,7.9,-999.0,81,0.00,,,-99.99,,2012-10-28 03:23:00,
2012-10-27 19:29:00,33.2,28.0,0.00,NNW,337,9.2,-999.0,81,0.00,,,-99.99,,2012-10-28 03:29:00,
2012-10-27 19:34:00,33.0,28.0,0.00,NNW,327,9.5,-999.0,81,0.00,,,-99.99,,2012-10-28 03:34:00,
2012-10-27 19:39:00,33.0,28.1,0.00,NNW,335,8.4,-999.0,82,0.00,,,-99.99,,2012-10-28 03:39:00,
2012-10-27 19:44:00,33.0,28.0,0.00,NW,321,9.5,-999.0,81,0.00,,,-99.99,,2012-10-28 03:44:00,
2012-10-27 19:49:00,33.2,28.1,0.00,NNW,327,7.1,-999.0,81,0.00,,,-99.99,,2012-10-28 03:49:00,
2012-10-27 19:54:00,33.2,27.8,0.00,NW,326,10.0,-999.0,80,0.00,,,-99.99,,2012-10-28 03:54:00,
2012-10-27 19:59:00,32.9,27.7,0.00,NW,320,7.8,-999.0,81,0.00,,,-99.99,,2012-10-28 03:59:00,
2012-10-27 20:00:00,32.9,27.8,0.00,NW,325,7.5,-999.0,81,0.00,,,-99.99,,2012-10-28 04:00:00,
2012-10-27 20:03:00,33.0,27.8,0.00,NW,326,8.6,-999.0,81,0.00,,,-99.99,,2012-10-28 04:03:00,
2012-10-27 20:05:00,33.0,27.9,0.00,NW,317,7.6,-999.0,81,0.00,,,-99.99,,2012-10-28 04:05:00,
2012-10-27 20:10:00,33.1,27.9,0.00,NW,309,8.0,-999.0,81,0.00,,,-99.99,,2012-10-28 04:10:00,
2012-10-27 20:15:00,33.2,27.9,0.00,NW,323,7.8,-999.0,80,0.00,,,-99.99,,2012-10-28 04:15:00,
2012-10-27 20:20:00,33.2,27.7,0.00,NW,319,8.4,-999.0,80,0.00,,,-99.99,,2012-10-28 04:20:00,
2012-10-27 20:25:00,33.2,27.7,0.00,NW,317,8.1,-999.0,80,0.00,,,-99.99,,2012-10-28 04:25:00,
2012-10-27 20:30:00,33.2,27.5,0.00,NW,320,9.5,-999.0,79,0.00,,,-99.99,,2012-10-28 04:30:00,
2012-10-27 20:35:00,33.2,27.6,0.00,NW,322,11.0,-999.0,79,0.00,,,-99.99,,2012-10-28 04:35:00,
2012-10-27 20:40:00,33.2,27.6,0.00,NW,320,9.9,-999.0,79,0.00,,,-99.99,,2012-10-28 04:40:00,
2012-10-27 20:45:00,33.2,27.6,0.00,NW,318,7.8,-999.0,80,0.00,,,-99.99,,2012-10-28 04:45:00,
2012-10-27 20:50:00,33.4,27.7,0.00,NW,313,8.1,-999.0,79,0.00,,,-99.99,,2012-10-28 04:50:00,
2012-10-27 20:55:00,33.3,27.4,0.00,NW,310,7.6,-999.0,78,0.00,,,-99.99,,2012-10-28 04:55:00,
2012-10-27 21:00:00,33.3,27.5,0.00,NW,318,8.9,-999.0,78,0.00,,,-99.99,,2012-10-28 05:00:00,
2012-10-27 21:05:00,33.4,27.4,0.00,NW,325,8.9,-999.0,78,0.00,,,-99.99,,2012-10-28 05:05:00,
2012-10-27 21:10:00,33.3,27.4,0.00,WNW,293,7.0,-999.0,78,0.00,,,-99.99,,2012-10-28 05:10:00,
2012-10-27 21:16:00,33.3,27.5,0.00,NW,305,6.1,-999.0,79,0.00,,,-99.99,,2012-10-28 05:16:00,
2012-10-27 21:21:00,33.3,27.5,0.00,NW,308,6.7,-999.0,79,0.00,,,-99.99,,2012-10-28 05:21:00,
2012-10-27 21:26:00,33.3,27.3,0.00,NNW,329,6.8,-999.0,78,0.00,,,-99.99,,2012-10-28 05:26:00,
2012-10-27 21:31:00,33.4,27.5,0.00,NW,320,7.8,-999.0,78,0.00,,,-99.99,,2012-10-28 05:31:00,
2012-10-27 21:36:00,33.2,27.4,0.00,NW,324,7.2,-999.0,79,0.00,,,-99.99,,2012-10-28 05:36:00,
2012-10-27 21:41:00,33.2,27.4,0.00,NW,320,6.5,-999.0,79,0.00,,,-99.99,,2012-10-28 05:41:00,
2012-10-27 21:46:00,33.2,27.5,0.00,NNW,335,6.7,-999.0,79,0.00,,,-99.99,,2012-10-28 05:46:00,
2012-10-27 21:51:00,32.7,27.3,0.00,NNW,338,9.8,-999.0,80,0.00,,,-99.99,,2012-10-28 05:51:00,
2012-10-27 21:56:00,32.9,27.4,0.00,NNW,328,6.4,-999.0,80,0.00,,,-99.99,,2012-10-28 05:56:00,
2012-10-27 22:01:00,33.0,27.3,0.00,NW,323,9.2,-999.0,79,0.00,,,-99.99,,2012-10-28 06:01:00,
2012-10-27 22:06:00,33.0,27.3,0.00,NW,318,7.7,-999.0,79,0.00,,,-99.99,,2012-10-28 06:06:00,
2012-10-27 22:11:00,33.2,27.3,0.00,NW,314,8.3,-999.0,78,0.00,,,-99.99,,2012-10-28 06:11:00,
2012-10-27 22:16:00,33.0,27.2,0.00,NW,324,7.9,-999.0,79,0.00,,,-99.99,,2012-10-28 06:16:00,
2012-10-27 22:21:00,33.0,27.3,0.00,WNW,296,5.7,-999.0,79,0.00,,,-99.99,,2012-10-28 06:21:00,
2012-10-27 22:26:00,32.8,27.1,0.00,WNW,297,5.1,-999.0,79,0.00,,,-99.99,,2012-10-28 06:26:00,
2012-10-27 22:31:00,32.9,27.0,0.00,NW,307,5.9,-999.0,78,0.00,,,-99.99,,2012-10-28 06:31:00,
2012-10-27 22:36:00,33.0,27.0,0.00,NNW,330,6.5,-999.0,78,0.00,,,-99.99,,2012-10-28 06:36:00,
2012-10-27 22:41:00,32.8,27.0,0.00,WNW,296,5.1,-999.0,79,0.00,,,-99.99,,2012-10-28 06:41:00,
2012-10-27 22:46:00,32.7,26.9,0.00,WNW,299,7.2,-999.0,79,0.00,,,-99.99,,2012-10-28 06:46:00,
2012-10-27 22:51:00,32.9,26.9,0.00,West,280,5.8,-999.0,78,0.00,,,-99.99,,2012-10-28 06:51:00,
2012-10-27 22:56:00,32.7,26.7,0.00,WNW,295,5.8,-999.0,78,0.00,,,-99.99,,2012-10-28 06:56:00,
2012-10-27 23:01:00,32.6,26.8,0.00,NW,311,6.1,-999.0,79,0.00,,,-99.99,,2012-10-28 07:01:00,
2012-10-27 23:06:00,32.6,26.8,0.00,WNW,295,6.7,-999.0,79,0.00,,,-99.99,,2012-10-28 07:06:00,
2012-10-27 23:11:00,32.5,26.8,0.00,NW,320,6.9,-999.0,79,0.00,,,-99.99,,2012-10-28 07:11:00,
2012-10-27 23:16:00,32.6,26.9,0.00,WNW,301,7.0,-999.0,79,0.00,,,-99.99,,2012-10-28 07:16:00,
2012-10-27 23:21:00,32.5,26.7,0.00,NW,304,5.3,-999.0,79,0.00,,,-99.99,,2012-10-28 07:21:00,
2012-10-27 23:26:00,32.4,26.7,0.00,WNW,299,6.6,-999.0,79,0.00,,,-99.99,,2012-10-28 07:26:00,
2012-10-27 23:31:00,32.6,26.9,0.00,WNW,289,6.8,-999.0,79,0.00,,,-99.99,,2012-10-28 07:31:00,
2012-10-27 23:36:00,32.6,26.9,0.00,NW,319,6.7,-999.0,79,0.00,,,-99.99,,2012-10-28 07:36:00,
2012-10-27 23:41:00,32.5,27.0,0.00,WNW,295,7.0,-999.0,80,0.00,,,-99.99,,2012-10-28 07:41:00,
2012-10-27 23:46:00,32.7,26.9,0.00,NW,306,6.8,-999.0,79,0.00,,,-99.99,,2012-10-28 07:46:00,
2012-10-27 23:51:00,32.7,27.0,0.00,NW,313,6.8,-999.0,79,0.00,,,-99.99,,2012-10-28 07:51:00,
2012-10-27 23:56:00,32.8,27.4,0.00,NW,313,6.7,-999.0,80,0.00,,,-99.99,,2012-10-28 07:56:00,